This is the latest recevied weather packets stored in our database for station/object KF6YUA. If no packets are shown the sender has not sent any weather packets the latest 1 day(s).
| Time | Temp. | Humidity | Pressure | Rain* | Wind** | Luminosity | Snow |
|---|---|---|---|---|---|---|---|
| 1778001467 | 15° C | 79% | 1017.6 hPa | 0 mm | 0 m/s | 180 W/m² | - |
| 1778001164 | 15° C | 81% | 1017.7 hPa | 0 mm | 0 m/s | 158 W/m² | - |
| 1778000860 | 15° C | 81% | 1017.5 hPa | 0 mm | 0 m/s | 141 W/m² | - |
| 1778000558 | 15° C | 80% | 1017.7 hPa | 0 mm | 0 m/s | 169 W/m² | - |
| 1778000253 | 15° C | 81% | 1017.7 hPa | 0 mm | 0 m/s | 161 W/m² | - |
| 1777999949 | 15° C | 80% | 1017.6 hPa | 0 mm | 0 m/s | 172 W/m² | - |
| 1777999645 | 15° C | 81% | 1017.8 hPa | 0 mm | 0 m/s | 150 W/m² | - |
| 1777999342 | 15° C | 79% | 1017.5 hPa | 0 mm | 0 m/s | 153 W/m² | - |
| 1777999040 | 15° C | 79% | 1017.5 hPa | 0 mm | 0.45 m/s, 166° | 223 W/m² | - |
| 1777998738 | 15.56° C | 81% | 1017.4 hPa | 0 mm | 0 m/s | 229 W/m² | - |
| 1777998435 | 15° C | 82% | 1017.6 hPa | 0 mm | 0 m/s | 221 W/m² | - |
| 1777998132 | 15° C | 85% | 1017.6 hPa | 0 mm | 0 m/s | 254 W/m² | - |
| 1777997829 | 14.44° C | 83% | 1017.4 hPa | 0 mm | 0.89 m/s, 237° | 206 W/m² | - |
| 1777997527 | 14.44° C | 84% | 1017.3 hPa | 0 mm | 0 m/s | 295 W/m² | - |
| 1777997224 | 15° C | 86% | 1017.2 hPa | 0 mm | 0.89 m/s, 142° | 302 W/m² | - |
| 1777996922 | 14.44° C | 85% | 1017.1 hPa | 0 mm | 0 m/s | 261 W/m² | - |
| 1777996617 | 15° C | 87% | 1017.1 hPa | 0 mm | 0 m/s | 287 W/m² | - |
| 1777996314 | 14.44° C | 89% | 1017.3 hPa | 0 mm | 0 m/s | 185 W/m² | - |
| 1777996010 | 13.33° C | 88% | 1017.4 hPa | 0 mm | 0.89 m/s, 164° | 197 W/m² | - |
| 1777995706 | 13.89° C | 90% | 1017.2 hPa | 0 mm | 0.89 m/s, 163° | 168 W/m² | - |
| 1777995403 | 13.89° C | 91% | 1017.1 hPa | 0 mm | 0.89 m/s, 163° | 194 W/m² | - |
| 1777995101 | 13.33° C | 90% | 1017.2 hPa | 0 mm | 0.89 m/s, 177° | 184 W/m² | - |
| 1777994797 | 13.89° C | 94% | 1017.1 hPa | 0 mm | 0 m/s | 170 W/m² | - |
| 1777994493 | 13.33° C | 95% | 1017.3 hPa | 0 mm | 0 m/s | 201 W/m² | - |
| 1777994188 | 12.78° C | 95% | 1017 hPa | 0 mm | 0 m/s | 177 W/m² | - |
* Rain latest hour (hover to see other rain measurements)
** Current wind speed in m/s (hover to see current wind gust speed)